When you browse on this site, cookies collect data to enhance your experience and personalize the content and advertising you see.
Visit our Privacy Policy to learn more. By continuing to use the site, you agree to this use of cookies and data.
  • In Deutschland
  • Länderverzeichnis
  • Für 7 Tage
  • Wassertemperatur
  • Satellitenkarten
  • Wetterkarte
  • Widgets
  • user-avatar
    Anmelden

    Stündliche Wetter Shlobin

    Heute, 23 Mai, Donnerstag

    Zeit Temperatur Niederschläge Wind Luftdruck Luftfeuchtigkeit
    00:00 +15°C° 0 mm 0 m/S 744 mmHg 84%
    01:00 +14°C° 0 mm 0 m/S 744 mmHg 85%
    02:00 +14°C° 0 mm 0 m/S 744 mmHg 86%
    03:00 +14°C° 0 mm 0 m/S 744 mmHg 86%
    04:00 +14°C° 0 mm 0 m/S 744 mmHg 85%
    05:00 +14°C° 0 mm 0 m/S 744 mmHg 85%
    06:00 +16°C° 0 mm 0 m/S 744 mmHg 78%
    07:00 +18°C° 0 mm 0 m/S 744 mmHg 71%
    08:00 +20°C° 0 mm 0 m/S 744 mmHg 64%
    09:00 +22°C° 0.3 mm 0 m/S 744 mmHg 60%
    10:00 +23°C° 0.3 mm 0 m/S 744 mmHg 56%
    11:00 +24°C° 0.3 mm 0 m/S 744 mmHg 52%
    12:00 +26°C° 0 mm 1 m/S 744 mmHg 50%
    13:00 +26°C° 0 mm 1 m/S 744 mmHg 47%
    14:00 +27°C° 0 mm 1 m/S 744 mmHg 45%
    15:00 +26°C° 0 mm 1 m/S 744 mmHg 47%
    16:00 +26°C° 0 mm 1 m/S 744 mmHg 48%
    17:00 +26°C° 0 mm 1 m/S 743 mmHg 49%
    18:00 +24°C° 0 mm 1 m/S 744 mmHg 53%
    19:00 +23°C° 0 mm 1 m/S 744 mmHg 57%
    20:00 +21°C° 0 mm 1 m/S 744 mmHg 61%
    21:00 +21°C° 0 mm 1 m/S 744 mmHg 62%
    22:00 +20°C° 0 mm 1 m/S 744 mmHg 64%
    23:00 +19°C° 0 mm 1 m/S 744 mmHg 66%

    Morgen, 24 Mai, Freitag

    Zeit Temperatur Niederschläge Wind Luftdruck Luftfeuchtigkeit
    00:00 +18°C° 0 mm 1 m/S 744 mmHg 69%
    01:00 +18°C° 0 mm 1 m/S 744 mmHg 73%
    02:00 +16°C° 0 mm 1 m/S 744 mmHg 77%
    03:00 +16°C° 0 mm 1 m/S 744 mmHg 78%
    04:00 +15°C° 0 mm 0 m/S 744 mmHg 80%
    05:00 +15°C° 0 mm 0 m/S 744 mmHg 81%
    06:00 +17°C° 0 mm 0 m/S 744 mmHg 75%
    07:00 +19°C° 0 mm 0 m/S 745 mmHg 68%
    08:00 +22°C° 0 mm 0 m/S 745 mmHg 61%
    09:00 +23°C° 0 mm 0 m/S 745 mmHg 56%
    10:00 +26°C° 0 mm 1 m/S 744 mmHg 50%
    11:00 +28°C° 0 mm 1 m/S 744 mmHg 45%
    12:00 +27°C° 0 mm 1 m/S 744 mmHg 45%
    13:00 +27°C° 0 mm 1 m/S 744 mmHg 45%
    14:00 +27°C° 0 mm 1 m/S 744 mmHg 45%
    15:00 +26°C° 0 mm 1 m/S 743 mmHg 49%
    16:00 +26°C° 0 mm 1 m/S 743 mmHg 54%
    17:00 +25°C° 0 mm 1 m/S 743 mmHg 58%
    18:00 +23°C° 0 mm 1 m/S 743 mmHg 62%
    19:00 +22°C° 0 mm 1 m/S 743 mmHg 66%
    20:00 +21°C° 0 mm 1 m/S 743 mmHg 71%
    21:00 +20°C° 1 mm 1 m/S 743 mmHg 77%
    22:00 +19°C° 1 mm 1 m/S 743 mmHg 83%
    23:00 +18°C° 1 mm 1 m/S 743 mmHg 88%

    übermorgen, 25 Mai, Samstag

    Zeit Temperatur Niederschläge Wind Luftdruck Luftfeuchtigkeit
    00:00 +18°C° 0.3 mm 1 m/S 743 mmHg 89%
    01:00 +18°C° 0.3 mm 1 m/S 743 mmHg 89%
    02:00 +18°C° 0.3 mm 1 m/S 742 mmHg 90%
    03:00 +18°C° 0.2 mm 1 m/S 742 mmHg 90%
    04:00 +18°C° 0.2 mm 1 m/S 742 mmHg 90%
    05:00 +18°C° 0.2 mm 1 m/S 742 mmHg 91%
    06:00 +19°C° 0.5 mm 1 m/S 742 mmHg 86%
    07:00 +20°C° 0.5 mm 1 m/S 742 mmHg 82%
    08:00 +22°C° 0.5 mm 1 m/S 742 mmHg 78%
    09:00 +22°C° 1.2 mm 1 m/S 742 mmHg 74%
    10:00 +23°C° 1.2 mm 2 m/S 742 mmHg 69%
    11:00 +24°C° 1.2 mm 2 m/S 742 mmHg 65%
    12:00 +24°C° 1.8 mm 3 m/S 742 mmHg 69%
    13:00 +22°C° 1.8 mm 3 m/S 742 mmHg 73%
    14:00 +22°C° 1.8 mm 4 m/S 741 mmHg 76%
    15:00 +21°C° 1.4 mm 4 m/S 741 mmHg 79%
    16:00 +20°C° 1.4 mm 4 m/S 741 mmHg 81%
    17:00 +20°C° 1.4 mm 3 m/S 741 mmHg 83%
    18:00 +19°C° 0.1 mm 3 m/S 741 mmHg 84%
    19:00 +18°C° 0.1 mm 3 m/S 741 mmHg 85%
    20:00 +17°C° 0.1 mm 3 m/S 742 mmHg 86%
    21:00 +16°C° 0 mm 3 m/S 742 mmHg 87%
    22:00 +14°C° 0 mm 3 m/S 742 mmHg 89%
    23:00 +13°C° 0 mm 3 m/S 742 mmHg 90%

    26 Mai, Sonntag

    Zeit Temperatur Niederschläge Wind Luftdruck Luftfeuchtigkeit
    00:00 +13°C° 0 mm 3 m/S 742 mmHg 92%
    01:00 +13°C° 0 mm 3 m/S 743 mmHg 93%
    02:00 +12°C° 0 mm 3 m/S 743 mmHg 95%
    03:00 +12°C° 0 mm 3 m/S 743 mmHg 94%
    04:00 +11°C° 0 mm 3 m/S 743 mmHg 94%
    05:00 +12°C° 0 mm 2 m/S 743 mmHg 93%
    06:00 +12°C° 0 mm 3 m/S 744 mmHg 86%
    07:00 +13°C° 0 mm 3 m/S 744 mmHg 78%
    08:00 +16°C° 0 mm 3 m/S 744 mmHg 70%
    09:00 +17°C° 0 mm 3 m/S 744 mmHg 65%
    10:00 +18°C° 0 mm 4 m/S 744 mmHg 60%
    11:00 +19°C° 0 mm 4 m/S 743 mmHg 56%
    12:00 +19°C° 0 mm 4 m/S 743 mmHg 55%
    13:00 +20°C° 0 mm 5 m/S 743 mmHg 54%
    14:00 +20°C° 0 mm 5 m/S 742 mmHg 54%
    15:00 +20°C° 0.1 mm 5 m/S 742 mmHg 56%
    16:00 +20°C° 0.1 mm 5 m/S 742 mmHg 59%
    17:00 +20°C° 0.1 mm 5 m/S 742 mmHg 61%
    18:00 +18°C° 0.3 mm 4 m/S 742 mmHg 69%
    19:00 +15°C° 0.3 mm 4 m/S 742 mmHg 77%
    20:00 +14°C° 0.3 mm 4 m/S 742 mmHg 86%
    21:00 +13°C° 0 mm 4 m/S 742 mmHg 86%
    22:00 +11°C° 0 mm 3 m/S 742 mmHg 87%
    23:00 +10°C° 0 mm 3 m/S 743 mmHg 88%

    27 Mai, Montag

    Zeit Temperatur Niederschläge Wind Luftdruck Luftfeuchtigkeit
    00:00 +10°C° 0 mm 4 m/S 743 mmHg 89%
    01:00 +8°C° 0 mm 4 m/S 743 mmHg 89%
    02:00 +7°C° 0 mm 4 m/S 743 mmHg 90%
    03:00 +7°C° 0 mm 5 m/S 744 mmHg 89%
    04:00 +7°C° 0 mm 5 m/S 744 mmHg 87%
    05:00 +7°C° 0 mm 5 m/S 744 mmHg 86%
    06:00 +8°C° 0 mm 5 m/S 745 mmHg 81%
    07:00 +9°C° 0 mm 6 m/S 745 mmHg 76%
    08:00 +10°C° 0 mm 6 m/S 746 mmHg 70%
    09:00 +10°C° 0 mm 6 m/S 746 mmHg 69%
    10:00 +11°C° 0 mm 6 m/S 747 mmHg 67%
    11:00 +13°C° 0 mm 5 m/S 747 mmHg 66%
    12:00 +14°C° 0 mm 5 m/S 747 mmHg 64%
    13:00 +15°C° 0 mm 5 m/S 748 mmHg 61%
    14:00 +16°C° 0 mm 5 m/S 748 mmHg 59%
    15:00 +17°C° 0 mm 5 m/S 748 mmHg 59%
    16:00 +18°C° 0 mm 4 m/S 748 mmHg 59%
    17:00 +18°C° 0 mm 4 m/S 748 mmHg 60%
    18:00 +17°C° 0 mm 3 m/S 748 mmHg 67%
    19:00 +15°C° 0 mm 2 m/S 748 mmHg 73%
    20:00 +14°C° 0 mm 1 m/S 748 mmHg 80%
    21:00 +13°C° 0 mm 2 m/S 749 mmHg 82%
    22:00 +12°C° 0 mm 2 m/S 749 mmHg 84%
    23:00 +12°C° 0 mm 2 m/S 749 mmHg 86%

    28 Mai, Dienstag

    Zeit Temperatur Niederschläge Wind Luftdruck Luftfeuchtigkeit
    00:00 +10°C° 0 mm 2 m/S 749 mmHg 88%
    01:00 +10°C° 0 mm 2 m/S 750 mmHg 90%
    02:00 +10°C° 0 mm 2 m/S 750 mmHg 91%
    03:00 +10°C° 0 mm 2 m/S 750 mmHg 91%
    04:00 +10°C° 0 mm 2 m/S 750 mmHg 90%
    05:00 +10°C° 0 mm 2 m/S 750 mmHg 90%
    06:00 +12°C° 0 mm 3 m/S 750 mmHg 83%
    07:00 +14°C° 0 mm 3 m/S 750 mmHg 76%
    08:00 +18°C° 0 mm 4 m/S 750 mmHg 69%
    09:00 +19°C° 0 mm 4 m/S 750 mmHg 65%
    10:00 +21°C° 0 mm 4 m/S 749 mmHg 62%
    11:00 +22°C° 0 mm 4 m/S 749 mmHg 59%
    12:00 +21°C° 0.3 mm 4 m/S 749 mmHg 67%
    13:00 +20°C° 0.3 mm 4 m/S 748 mmHg 75%
    14:00 +20°C° 0.3 mm 4 m/S 748 mmHg 83%
    15:00 +19°C° 1.1 mm 5 m/S 748 mmHg 85%
    16:00 +17°C° 1.1 mm 5 m/S 747 mmHg 88%
    17:00 +17°C° 1.1 mm 6 m/S 747 mmHg 91%
    18:00 +17°C° 0.1 mm 5 m/S 746 mmHg 90%
    19:00 +19°C° 0.1 mm 5 m/S 746 mmHg 88%
    20:00 +19°C° 0.1 mm 5 m/S 746 mmHg 87%
    21:00 +19°C° 0 mm 5 m/S 746 mmHg 88%
    22:00 +19°C° 0 mm 5 m/S 746 mmHg 88%
    23:00 +19°C° 0 mm 5 m/S 746 mmHg 89%
    Mehr zeigen